Regional Weather Roundup
Issued by NWS State College, PA

Current Version | Previous Version | Text Only | Print | Product List | Glossary On
Versions: 1 2 3 4 5 6 7 8 9 10 11 12 13 14 15 16 17 18 19 20 21 22 23 24 25 26 27 28 29 30 31 32 33 34 35 36 37 38 39 40 41 42 43 44 45 46 47 48 49 50
000
ASUS41 KCTP 270110
RWRCTP

REGIONAL WEATHER ROUNDUP
NATIONAL WEATHER SERVICE STATE COLLEGE PA
800 PM EST MON JAN 26 2015

Note: "fair" indicates few or no clouds below 12,000 feet with no
significant weather and/or obstructions to visibility.

* = STATION THAT DOES NOT REPORT PRECIPITATION /E.G. RAIN...SNOW...ETC/
    THUNDER OR FOG.

PAZ002>004-007>009-013>016-020>023-029>032-270200-
WESTERN PENNSYLVANIA

CITY           SKY/WX    TMP DP  RH WIND       PRES   REMARKS
ERIE           CLOUDY    21  16  81 NE12      29.88S WCI   9
MEADVILLE      CLOUDY    18  14  84 N6        29.81R WCI  10
FRANKLIN*      CLOUDY    21  16  79 N3        29.81R
NEW CASTLE     CLOUDY    19  15  84 NW8       29.86R WCI   9
BEAVER COUNTY  CLOUDY    21  18  86 NW6       29.82R WCI  14
BUTLER*        CLOUDY    23  19  86 W6        29.82R
PITTSBURGH INT FLURRIES  23  19  85 NW9       29.82R WCI  13
PITTSBURGH     LGT SNOW  23  18  81 NW8       29.80R WCI  14
INDIANA*       CLOUDY    23  19  86 NE6       29.82R
LATROBE        LGT SNOW  27  25  93 NW7       29.81R FOG
WASHINGTON CO* CLOUDY    25  19  80 CALM      29.84R
$$

PAZ004>006-010>012-017>019-024>028-033>037-041-042-045-046-049>053-270200-
CENTRAL PENNSYLVANIA

CITY           SKY/WX    TMP DP  RH WIND       PRES   REMARKS
BRADFORD       LGT SNOW  15  10  80 E6        29.76R WCI   6
DUBOIS         LGT SNOW  20  16  84 NE5       29.75R FOG     WCI  13
CLEARFIELD     LGT SNOW  20  18  92 N3        29.78S FOG
JOHNSTOWN      LGT SNOW  19  16  88 NE6       29.70S FOG     WCI  11
ALTOONA        LGT SNOW  21  19  92 N3        29.77S FOG
STATE COLLEGE  LGT SNOW  21  19  93 NE6       29.79S FOG     WCI  14
WILLIAMSPORT   LGT SNOW  24  20  84 W3        29.84S FOG
SELINSGROVE    LGT SNOW  24  21  88 NW5       29.83S FOG
FT INDIANTOWN  MOCLDY    25  19  80 NE10G18   29.78F WCI  15
CAPITAL CITY   LGT SNOW  26  21  81 NE5       29.80S
HARRISBURG     LGT SNOW  24  20  84 NE5       29.79F FOG
YORK           FLURRIES  23  20  88 N7        29.77S WCI  15
$$

PAZ038>040-043-044-047-048-054-055-060>062-067>071-270200-
EASTERN PENNSYLVANIA

CITY           SKY/WX    TMP DP  RH WIND       PRES   REMARKS
SCRANTON       CLOUDY    22  15  75 NE8G16    29.80F WCI  12
MOUNT POCONO   LGT SNOW  20  15  81 E22G30    29.74F WCI   3
ALLENTOWN      CLOUDY    23  16  74 NE18G29   29.81F WCI   9
QUAKERTOWN*    NOT AVBL
READING        CLOUDY    23  16  74 NE13      29.79F WCI  11
LANCASTER      LGT SNOW  22  17  81 NE13      29.77S WCI  10
COATESVILLE    LGT SNOW  25  23  93 NE14G20   29.73F WCI  13
POTTSTOWN      CLOUDY    23  18  81 NE8       29.79F WCI  14
BLUE BELL      CLOUDY    28  23  80 NE10G21   29.75F
DOYLESTOWN     LGT SNOW  23  22  96 NE15G23   29.77S VSB 3/4 WCI  10
WILLOW GROVE   NOT AVBL
NORTH PHILA    LGT SNOW  28  20  71 NE17G25   29.78S
PHILADELPHIA   FLURRIES  28  22  78 NE25      29.76S WCI  13
$$


USA.gov is the U.S. government's official web portal to all federal, state and local government web resources and services.